KLM274 SBRF-GVAC

Flight info

Callsign KLM274
Flight time 3h 44m
Altitude 33000
Route FNR UN857 BOTNO DCT SNT DCT AMDER AMDER1F
Aircraft E195/M-SDE3GILORVW/S

Departure

Time 2026-05-04 17:29
Airport Recife/Guararapes - Gilberto Freyre International Airport (SBRF)

Arrival

Time 2026-05-04 21:14
Airport Amílcar Cabral International Airport (GVAC)
Time Latitude Longitude Altitude Speed Heading
2026-05-04 17:16 -8.12704 -34.91984 37 ft 0 kts 304°
2026-05-04 17:20 -8.12711 -34.91954 34 ft 4 kts 236°
2026-05-04 17:20 -8.12702 -34.91942 35 ft 0 kts 215°
2026-05-04 17:23 -8.12703 -34.91943 36 ft 2 kts 215°
2026-05-04 17:24 -8.12764 -34.91987 37 ft 11 kts 216°
2026-05-04 17:24 -8.12808 -34.92026 37 ft 13 kts 240°
2026-05-04 17:25 -8.12710 -34.92137 37 ft 20 kts 322°
2026-05-04 17:26 -8.12486 -34.92215 36 ft 16 kts 343°
2026-05-04 17:26 -8.12028 -34.92359 33 ft 26 kts 341°
2026-05-04 17:27 -8.11707 -34.92471 32 ft 23 kts 340°
2026-05-04 17:27 -8.11483 -34.92640 32 ft 17 kts 275°
2026-05-04 17:28 -8.11600 -34.92659 32 ft 25 kts 162°
2026-05-04 17:29 -8.14080 -34.91838 483 ft 154 kts 161°
2026-05-04 17:29 -8.16917 -34.90884 1422 ft 180 kts 162°
2026-05-04 17:30 -8.20690 -34.89234 2438 ft 223 kts 130°
2026-05-04 17:31 -8.20749 -34.85952 3208 ft 272 kts 62°
2026-05-04 17:31 -8.16882 -34.81517 4917 ft 286 kts 51°
2026-05-04 17:32 -8.14393 -34.78420 5004 ft 283 kts 56°
2026-05-04 17:33 -8.11022 -34.73570 5008 ft 281 kts 58°
2026-05-04 17:33 -8.09929 -34.71942 5008 ft 279 kts 59°
2026-05-04 17:34 -8.06506 -34.67123 6271 ft 284 kts 57°
2026-05-04 17:34 -8.05299 -34.65529 6904 ft 286 kts 56°
2026-05-04 17:35 -8.01678 -34.60736 8896 ft 289 kts 55°
2026-05-04 17:35 -7.99247 -34.57493 10183 ft 292 kts 55°
2026-05-04 17:35 -7.97988 -34.55803 10322 ft 311 kts 54°
2026-05-04 17:36 -7.96650 -34.54007 10440 ft 330 kts 54°
2026-05-04 17:36 -7.95232 -34.52122 10737 ft 341 kts 52°
2026-05-04 17:36 -7.93526 -34.50428 11186 ft 348 kts 40°
2026-05-04 17:36 -7.91473 -34.49116 11738 ft 351 kts 29°
2026-05-04 17:37 -7.89294 -34.48004 12299 ft 352 kts 28°
2026-05-04 17:37 -7.87103 -34.46881 12834 ft 354 kts 28°
2026-05-04 17:37 -7.84900 -34.45752 13402 ft 355 kts 28°
2026-05-04 17:37 -7.82714 -34.44633 13883 ft 359 kts 28°
2026-05-04 17:38 -7.80484 -34.43494 14347 ft 360 kts 28°
2026-05-04 17:38 -7.78245 -34.42348 14793 ft 363 kts 28°
2026-05-04 17:38 -7.75980 -34.41190 15204 ft 366 kts 28°
2026-05-04 17:38 -7.73701 -34.40024 15668 ft 368 kts 28°
2026-05-04 17:39 -7.69089 -34.37657 16512 ft 374 kts 28°
2026-05-04 17:39 -7.66761 -34.36465 16914 ft 377 kts 27°
2026-05-04 17:39 -7.64413 -34.35264 17309 ft 380 kts 28°
2026-05-04 17:40 -7.62052 -34.34057 17754 ft 382 kts 27°
2026-05-04 17:40 -7.59674 -34.32838 18126 ft 385 kts 28°
2026-05-04 17:40 -7.57280 -34.31611 18508 ft 387 kts 28°
2026-05-04 17:40 -7.54868 -34.30376 18794 ft 390 kts 29°
2026-05-04 17:41 -7.52446 -34.29134 19134 ft 391 kts 29°
2026-05-04 17:41 -7.50009 -34.27887 19435 ft 395 kts 28°
2026-05-04 17:41 -7.47552 -34.26632 19745 ft 397 kts 29°
2026-05-04 17:41 -7.45090 -34.25376 20080 ft 398 kts 29°
2026-05-04 17:42 -7.42611 -34.24110 20377 ft 401 kts 29°
2026-05-04 17:42 -7.40124 -34.22837 20710 ft 402 kts 28°
2026-05-04 17:42 -7.37623 -34.21555 20987 ft 404 kts 28°
2026-05-04 17:42 -7.35106 -34.20268 21309 ft 406 kts 28°
2026-05-04 17:43 -7.32580 -34.18976 21571 ft 409 kts 28°
2026-05-04 17:43 -7.30041 -34.17679 21902 ft 410 kts 28°
2026-05-04 17:43 -7.27492 -34.16377 22172 ft 412 kts 28°
2026-05-04 17:43 -7.24928 -34.15069 22454 ft 414 kts 29°
2026-05-04 17:44 -7.22354 -34.13755 22754 ft 416 kts 28°
2026-05-04 17:44 -7.19762 -34.12430 23007 ft 418 kts 28°
2026-05-04 17:44 -7.17164 -34.11102 23292 ft 419 kts 29°
2026-05-04 17:44 -7.14557 -34.09767 23524 ft 422 kts 28°
2026-05-04 17:45 -7.11937 -34.08426 23752 ft 423 kts 29°
2026-05-04 17:45 -7.09300 -34.07080 23949 ft 425 kts 28°
2026-05-04 17:45 -7.06661 -34.05737 24190 ft 427 kts 29°
2026-05-04 17:45 -7.04004 -34.04384 24368 ft 430 kts 28°
2026-05-04 17:46 -7.01329 -34.03021 24589 ft 431 kts 28°
2026-05-04 17:46 -6.98642 -34.01651 24775 ft 434 kts 27°
2026-05-04 17:46 -6.95946 -34.00274 24983 ft 436 kts 28°
2026-05-04 17:46 -6.93234 -33.98886 25174 ft 438 kts 27°
2026-05-04 17:47 -6.90506 -33.97493 25389 ft 440 kts 27°
2026-05-04 17:47 -6.87805 -33.96119 25576 ft 442 kts 27°
2026-05-04 17:47 -6.85052 -33.94720 25771 ft 445 kts 27°
2026-05-04 17:47 -6.82283 -33.93309 25974 ft 447 kts 27°
2026-05-04 17:48 -6.79507 -33.91890 26147 ft 449 kts 27°
2026-05-04 17:48 -6.76712 -33.90462 26332 ft 451 kts 27°
2026-05-04 17:48 -6.73907 -33.89030 26526 ft 453 kts 27°
2026-05-04 17:48 -6.71088 -33.87594 26708 ft 455 kts 26°
2026-05-04 17:49 -6.68251 -33.86151 26901 ft 458 kts 26°
2026-05-04 17:49 -6.65403 -33.84701 27074 ft 460 kts 26°
2026-05-04 17:49 -6.62546 -33.83246 27275 ft 462 kts 26°
2026-05-04 17:49 -6.59678 -33.81786 27456 ft 463 kts 26°
2026-05-04 17:50 -6.56793 -33.80319 27647 ft 465 kts 26°
2026-05-04 17:50 -6.53901 -33.78849 27813 ft 467 kts 26°
2026-05-04 17:50 -6.50993 -33.77369 27992 ft 469 kts 26°
2026-05-04 17:50 -6.48074 -33.75883 28149 ft 471 kts 26°
2026-05-04 17:51 -6.45143 -33.74390 28339 ft 473 kts 26°
2026-05-04 17:51 -6.42203 -33.72893 28510 ft 474 kts 26°
2026-05-04 17:51 -6.39252 -33.71389 28687 ft 476 kts 25°
2026-05-04 17:51 -6.36294 -33.69881 28849 ft 478 kts 26°
2026-05-04 17:52 -6.33326 -33.68369 29022 ft 479 kts 25°
2026-05-04 17:52 -6.30347 -33.66855 29208 ft 480 kts 25°
2026-05-04 17:52 -6.27355 -33.65339 29364 ft 482 kts 25°
2026-05-04 17:52 -6.24397 -33.63837 29539 ft 483 kts 25°
2026-05-04 17:53 -6.21394 -33.62308 29699 ft 485 kts 26°
2026-05-04 17:53 -6.18383 -33.60775 29870 ft 486 kts 25°
2026-05-04 17:53 -6.15358 -33.59238 30021 ft 488 kts 26°
2026-05-04 17:53 -6.12322 -33.57699 30177 ft 489 kts 25°
2026-05-04 17:54 -6.09281 -33.56155 30357 ft 489 kts 25°
2026-05-04 17:54 -6.06251 -33.54613 30592 ft 488 kts 26°
2026-05-04 17:54 -6.03214 -33.53070 30800 ft 488 kts 25°
2026-05-04 17:54 -6.00191 -33.51535 31039 ft 487 kts 25°
2026-05-04 17:55 -5.97166 -33.49998 31261 ft 487 kts 25°
2026-05-04 17:55 -5.94144 -33.48462 31518 ft 486 kts 25°
2026-05-04 17:55 -5.91132 -33.46928 31751 ft 485 kts 25°
2026-05-04 17:55 -5.88124 -33.45398 31996 ft 485 kts 25°
2026-05-04 17:56 -5.85113 -33.43869 32225 ft 484 kts 25°
2026-05-04 17:56 -5.82109 -33.42346 32473 ft 484 kts 25°
2026-05-04 17:56 -5.79102 -33.40822 32685 ft 484 kts 25°
2026-05-04 17:56 -5.76102 -33.39304 32915 ft 483 kts 25°
2026-05-04 17:57 -5.73138 -33.37806 33140 ft 483 kts 25°
2026-05-04 17:57 -5.70143 -33.36288 33371 ft 483 kts 25°
2026-05-04 17:57 -5.67146 -33.34768 33616 ft 482 kts 25°
2026-05-04 17:57 -5.64152 -33.33247 33852 ft 482 kts 25°
2026-05-04 17:58 -5.61166 -33.31730 34070 ft 481 kts 25°
2026-05-04 17:58 -5.58178 -33.30210 34283 ft 480 kts 25°
2026-05-04 17:58 -5.55206 -33.28701 34506 ft 480 kts 25°
2026-05-04 17:58 -5.52222 -33.27189 34712 ft 479 kts 25°
2026-05-04 17:59 -5.49247 -33.25683 34877 ft 479 kts 25°
2026-05-04 17:59 -5.46284 -33.24181 34928 ft 476 kts 25°
2026-05-04 18:00 -5.37463 -33.19710 34930 ft 472 kts 25°
2026-05-04 18:00 -5.31635 -33.16763 34932 ft 472 kts 25°
2026-05-04 18:01 -5.25765 -33.13799 34931 ft 473 kts 25°
2026-05-04 18:01 -5.19893 -33.10824 34928 ft 473 kts 25°
2026-05-04 18:02 -5.11082 -33.06349 34933 ft 473 kts 25°
2026-05-04 18:02 -5.05204 -33.03373 34934 ft 473 kts 25°
2026-05-04 18:03 -4.99330 -33.00403 34936 ft 473 kts 25°
2026-05-04 18:03 -4.93495 -32.97449 34937 ft 473 kts 25°
2026-05-04 18:04 -4.87622 -32.94481 34939 ft 473 kts 25°
2026-05-04 18:05 -4.78815 -32.90032 34939 ft 472 kts 26°
2026-05-04 18:05 -4.72950 -32.87065 34943 ft 472 kts 26°
2026-05-04 18:06 -4.64154 -32.82617 34936 ft 472 kts 26°
2026-05-04 18:06 -4.58291 -32.79650 34936 ft 472 kts 26°
2026-05-04 18:07 -4.52466 -32.76710 34937 ft 472 kts 25°
2026-05-04 18:07 -4.46604 -32.73752 34938 ft 472 kts 26°
2026-05-04 18:08 -4.40748 -32.70787 34948 ft 471 kts 26°
2026-05-04 18:08 -4.34910 -32.67835 34948 ft 470 kts 25°
2026-05-04 18:09 -4.23236 -32.61951 34938 ft 469 kts 26°
2026-05-04 18:10 -4.17400 -32.59007 34937 ft 469 kts 26°
2026-05-04 18:10 -4.11605 -32.56083 34950 ft 469 kts 26°
2026-05-04 18:11 -4.05781 -32.53137 34970 ft 469 kts 25°
2026-05-04 18:11 -3.99959 -32.50199 34973 ft 468 kts 25°
2026-05-04 18:12 -3.94134 -32.47268 34988 ft 468 kts 26°
2026-05-04 18:12 -3.88322 -32.44334 34987 ft 468 kts 25°
2026-05-04 18:13 -3.82519 -32.41383 34995 ft 467 kts 27°
2026-05-04 18:14 -3.73916 -32.36815 34991 ft 466 kts 27°
2026-05-04 18:14 -3.68242 -32.33785 34974 ft 465 kts 27°
2026-05-04 18:15 -3.56787 -32.27746 34940 ft 465 kts 27°
2026-05-04 18:16 -3.51052 -32.24727 34935 ft 466 kts 27°
2026-05-04 18:16 -3.45321 -32.21706 34936 ft 466 kts 27°
2026-05-04 18:17 -3.36730 -32.17167 34934 ft 466 kts 27°
2026-05-04 18:18 -3.28170 -32.12655 34933 ft 465 kts 27°
2026-05-04 18:18 -3.22437 -32.09655 34936 ft 465 kts 27°
2026-05-04 18:19 -3.13802 -32.05191 34933 ft 465 kts 27°
2026-05-04 18:19 -3.08048 -32.02226 34936 ft 465 kts 27°
2026-05-04 18:20 -3.02294 -31.99250 34930 ft 466 kts 27°
2026-05-04 18:20 -2.96542 -31.96270 34930 ft 466 kts 27°
2026-05-04 18:21 -2.90790 -31.93289 34933 ft 466 kts 28°
2026-05-04 18:21 -2.85068 -31.90329 34936 ft 466 kts 28°
2026-05-04 18:22 -2.79318 -31.87348 34934 ft 465 kts 28°
2026-05-04 18:22 -2.73568 -31.84367 34936 ft 466 kts 28°
2026-05-04 18:23 -2.67808 -31.81393 34933 ft 466 kts 28°
2026-05-04 18:23 -2.62051 -31.78425 34933 ft 466 kts 28°
2026-05-04 18:24 -2.56291 -31.75447 34942 ft 466 kts 28°
2026-05-04 18:24 -2.50535 -31.72463 34940 ft 466 kts 28°
2026-05-04 18:25 -2.44782 -31.69489 34941 ft 466 kts 28°
2026-05-04 18:25 -2.39059 -31.66536 34944 ft 466 kts 28°
2026-05-04 18:26 -2.33301 -31.63557 34948 ft 466 kts 28°
2026-05-04 18:26 -2.27542 -31.60580 34951 ft 466 kts 28°
2026-05-04 18:27 -2.21790 -31.57606 34947 ft 465 kts 28°
2026-05-04 18:27 -2.16041 -31.54637 34948 ft 465 kts 28°
2026-05-04 18:28 -2.10297 -31.51676 34952 ft 465 kts 28°
2026-05-04 18:28 -2.04557 -31.48702 34948 ft 465 kts 28°
2026-05-04 18:29 -1.98846 -31.45740 34941 ft 465 kts 28°
2026-05-04 18:29 -1.93094 -31.42774 34944 ft 465 kts 28°
2026-05-04 18:30 -1.85403 -31.38806 34944 ft 465 kts 28°
2026-05-04 18:31 -1.79653 -31.35835 34944 ft 465 kts 28°
2026-05-04 18:31 -1.73949 -31.32886 34941 ft 465 kts 28°
2026-05-04 18:32 -1.68206 -31.29925 34940 ft 465 kts 28°
2026-05-04 18:32 -1.62464 -31.26958 34945 ft 465 kts 28°
2026-05-04 18:33 -1.56714 -31.23994 34940 ft 465 kts 28°
2026-05-04 18:33 -1.50964 -31.21021 34939 ft 465 kts 28°
2026-05-04 18:34 -1.45254 -31.18065 34932 ft 466 kts 28°
2026-05-04 18:34 -1.39497 -31.15088 34936 ft 466 kts 28°
2026-05-04 18:35 -1.33736 -31.12114 34939 ft 466 kts 28°
2026-05-04 18:35 -1.27979 -31.09145 34941 ft 466 kts 28°
2026-05-04 18:36 -1.22214 -31.06176 34932 ft 466 kts 28°
2026-05-04 18:36 -1.16444 -31.03196 34933 ft 467 kts 28°
2026-05-04 18:37 -1.10678 -31.00215 34939 ft 467 kts 28°
2026-05-04 18:37 -1.04909 -30.97240 34939 ft 467 kts 28°
2026-05-04 18:38 -0.99130 -30.94260 34935 ft 468 kts 28°
2026-05-04 18:38 -0.93349 -30.91266 34942 ft 468 kts 28°
2026-05-04 18:39 -0.87567 -30.88279 34948 ft 468 kts 28°
2026-05-04 18:39 -0.81824 -30.85309 34948 ft 468 kts 28°
2026-05-04 18:40 -0.76040 -30.82322 34947 ft 468 kts 28°
2026-05-04 18:40 -0.70256 -30.79336 34948 ft 468 kts 28°
2026-05-04 18:41 -0.64475 -30.76349 34948 ft 468 kts 28°
2026-05-04 18:41 -0.58701 -30.73356 34953 ft 467 kts 28°
2026-05-04 18:42 -0.52942 -30.70369 34953 ft 466 kts 28°
2026-05-04 18:42 -0.47179 -30.67390 34953 ft 466 kts 28°
2026-05-04 18:43 -0.41455 -30.64433 34949 ft 467 kts 28°
2026-05-04 18:43 -0.35684 -30.61455 34944 ft 467 kts 28°
2026-05-04 18:44 -0.29910 -30.58472 34944 ft 467 kts 28°
2026-05-04 18:44 -0.24140 -30.55494 34942 ft 467 kts 28°
2026-05-04 18:45 -0.18364 -30.52509 34944 ft 467 kts 28°
2026-05-04 18:45 -0.12597 -30.49523 34945 ft 467 kts 28°
2026-05-04 18:46 -0.06831 -30.46534 34943 ft 467 kts 28°
2026-05-04 18:46 -0.01061 -30.43553 34945 ft 467 kts 28°
2026-05-04 18:47 0.04673 -30.40599 34946 ft 466 kts 28°
2026-05-04 18:47 0.10429 -30.37628 34943 ft 466 kts 28°
2026-05-04 18:48 0.16177 -30.34647 34938 ft 466 kts 28°
2026-05-04 18:48 0.21929 -30.31670 34936 ft 466 kts 28°
2026-05-04 18:49 0.27691 -30.28695 34938 ft 466 kts 28°
2026-05-04 18:49 0.33450 -30.25715 34938 ft 466 kts 28°
2026-05-04 18:50 0.39204 -30.22737 34952 ft 466 kts 28°
2026-05-04 18:50 0.44920 -30.19784 34956 ft 465 kts 28°
2026-05-04 18:51 0.50667 -30.16804 34948 ft 465 kts 28°
2026-05-04 18:51 0.56413 -30.13834 34952 ft 465 kts 28°
2026-05-04 18:52 0.62156 -30.10871 34955 ft 465 kts 28°
2026-05-04 18:52 0.67905 -30.07899 34949 ft 465 kts 28°
2026-05-04 18:53 0.73648 -30.04922 34938 ft 465 kts 28°
2026-05-04 18:53 0.79399 -30.01940 34935 ft 466 kts 28°
2026-05-04 18:54 0.85159 -29.98965 34937 ft 466 kts 28°
2026-05-04 18:54 0.90919 -29.95987 34940 ft 467 kts 28°
2026-05-04 18:55 0.96690 -29.93000 34944 ft 467 kts 28°
2026-05-04 18:55 1.05303 -29.88538 34944 ft 467 kts 28°
2026-05-04 18:56 1.11081 -29.85543 34945 ft 468 kts 28°
2026-05-04 18:56 1.16858 -29.82558 34944 ft 468 kts 28°
2026-05-04 18:57 1.22642 -29.79571 34942 ft 468 kts 28°
2026-05-04 18:57 1.28424 -29.76576 34943 ft 468 kts 28°
2026-05-04 18:58 1.34207 -29.73581 34944 ft 468 kts 28°
2026-05-04 18:58 1.39998 -29.70580 34938 ft 469 kts 28°
2026-05-04 18:59 1.45789 -29.67566 34941 ft 470 kts 28°
2026-05-04 18:59 1.51540 -29.64544 34944 ft 470 kts 28°
2026-05-04 19:00 1.57328 -29.61501 34947 ft 470 kts 28°
2026-05-04 19:00 1.63117 -29.58476 34948 ft 470 kts 28°
2026-05-04 19:01 1.68909 -29.55451 34947 ft 470 kts 28°
2026-05-04 19:01 1.74704 -29.52416 34940 ft 470 kts 28°
2026-05-04 19:02 1.80505 -29.49373 34940 ft 471 kts 28°
2026-05-04 19:02 1.86324 -29.46324 34942 ft 472 kts 28°
2026-05-04 19:03 1.92105 -29.43299 34943 ft 472 kts 28°
2026-05-04 19:03 1.97924 -29.40244 34946 ft 473 kts 28°
2026-05-04 19:04 2.03750 -29.37189 34949 ft 473 kts 28°
2026-05-04 19:04 2.09589 -29.34139 34948 ft 474 kts 28°
2026-05-04 19:05 2.15431 -29.31081 34944 ft 474 kts 28°
2026-05-04 19:05 2.21273 -29.28023 34947 ft 474 kts 28°
2026-05-04 19:06 2.27085 -29.24976 34955 ft 475 kts 28°
2026-05-04 19:06 2.32969 -29.21886 34955 ft 475 kts 28°
2026-05-04 19:07 2.38780 -29.18841 34947 ft 475 kts 28°
2026-05-04 19:07 2.44636 -29.15772 34946 ft 475 kts 28°
2026-05-04 19:08 2.50493 -29.12710 34948 ft 475 kts 28°
2026-05-04 19:08 2.56350 -29.09639 34949 ft 475 kts 28°
2026-05-04 19:09 2.62201 -29.06562 34949 ft 475 kts 28°
2026-05-04 19:09 2.68058 -29.03493 34947 ft 475 kts 28°
2026-05-04 19:10 2.73919 -29.00420 34943 ft 476 kts 28°
2026-05-04 19:10 2.79738 -28.97366 34944 ft 476 kts 28°
2026-05-04 19:11 2.85613 -28.94286 34945 ft 476 kts 28°
2026-05-04 19:11 2.91485 -28.91212 34949 ft 477 kts 28°
2026-05-04 19:12 3.00295 -28.86581 34954 ft 477 kts 28°
2026-05-04 19:13 3.06174 -28.83493 34956 ft 477 kts 28°
2026-05-04 19:13 3.12046 -28.80412 34953 ft 477 kts 28°
2026-05-04 19:14 3.17922 -28.77338 34951 ft 476 kts 28°
2026-05-04 19:14 3.23794 -28.74272 34949 ft 476 kts 28°
2026-05-04 19:15 3.29671 -28.71200 34950 ft 476 kts 28°
2026-05-04 19:15 3.35538 -28.68125 34945 ft 476 kts 28°
2026-05-04 19:16 3.41420 -28.65053 34944 ft 477 kts 28°
2026-05-04 19:16 3.47292 -28.61978 34943 ft 477 kts 28°
2026-05-04 19:17 3.53138 -28.58918 34941 ft 477 kts 28°
2026-05-04 19:17 3.59019 -28.55841 34945 ft 477 kts 28°
2026-05-04 19:18 3.64903 -28.52767 34948 ft 477 kts 28°
2026-05-04 19:18 3.70789 -28.49681 34945 ft 477 kts 27°
2026-05-04 19:19 3.76675 -28.46603 34942 ft 478 kts 28°
2026-05-04 19:19 3.82563 -28.43517 34945 ft 478 kts 28°
2026-05-04 19:20 3.88458 -28.40420 34948 ft 478 kts 28°
2026-05-04 19:20 3.94354 -28.37334 34946 ft 478 kts 27°
2026-05-04 19:21 4.00247 -28.34244 34947 ft 478 kts 28°
2026-05-04 19:21 4.06109 -28.31169 34949 ft 479 kts 27°
2026-05-04 19:22 4.12014 -28.28077 34947 ft 479 kts 27°
2026-05-04 19:22 4.17916 -28.24983 34949 ft 479 kts 28°
2026-05-04 19:23 4.23811 -28.21883 34952 ft 479 kts 27°
2026-05-04 19:23 4.29715 -28.18789 34953 ft 479 kts 27°
2026-05-04 19:24 4.35616 -28.15706 34952 ft 479 kts 27°
2026-05-04 19:24 4.41516 -28.12613 34948 ft 479 kts 27°
2026-05-04 19:25 4.47415 -28.09515 34950 ft 478 kts 27°
2026-05-04 19:25 4.53271 -28.06441 34948 ft 478 kts 27°
2026-05-04 19:26 4.59174 -28.03349 34951 ft 478 kts 27°
2026-05-04 19:26 4.65066 -28.00250 34949 ft 478 kts 28°
2026-05-04 19:27 4.70949 -27.97155 34945 ft 478 kts 27°
2026-05-04 19:27 4.76845 -27.94059 34943 ft 478 kts 27°
2026-05-04 19:28 4.82731 -27.90972 34939 ft 478 kts 27°
2026-05-04 19:28 4.88622 -27.87877 34942 ft 478 kts 27°
2026-05-04 19:29 4.94514 -27.84784 34942 ft 478 kts 27°
2026-05-04 19:29 5.00398 -27.81686 34941 ft 478 kts 27°
2026-05-04 19:30 5.06290 -27.78581 34939 ft 478 kts 27°
2026-05-04 19:30 5.12177 -27.75484 34941 ft 478 kts 27°
2026-05-04 19:31 5.18065 -27.72387 34939 ft 477 kts 27°
2026-05-04 19:31 5.23904 -27.69318 34937 ft 477 kts 27°
2026-05-04 19:32 5.29789 -27.66225 34939 ft 478 kts 27°
2026-05-04 19:32 5.35677 -27.63133 34940 ft 478 kts 27°
2026-05-04 19:33 5.40564 -27.60555 34942 ft 478 kts 27°
2026-05-04 19:33 5.46456 -27.57455 34943 ft 478 kts 27°
2026-05-04 19:34 5.52342 -27.54359 34940 ft 478 kts 27°
2026-05-04 19:34 5.58228 -27.51254 34943 ft 478 kts 27°
2026-05-04 19:35 5.64112 -27.48148 34941 ft 478 kts 27°
2026-05-04 19:35 5.69996 -27.45053 34941 ft 477 kts 27°
2026-05-04 19:36 5.75843 -27.41979 34942 ft 477 kts 27°
2026-05-04 19:36 5.81719 -27.38873 34943 ft 477 kts 27°
2026-05-04 19:37 5.87591 -27.35764 34945 ft 477 kts 27°
2026-05-04 19:37 5.93472 -27.32665 34944 ft 477 kts 27°
2026-05-04 19:38 5.99354 -27.29570 34941 ft 477 kts 27°
2026-05-04 19:38 6.05237 -27.26468 34943 ft 477 kts 27°
2026-05-04 19:39 6.11113 -27.23369 34943 ft 477 kts 27°
2026-05-04 19:39 6.16952 -27.20284 34939 ft 477 kts 27°
2026-05-04 19:40 6.22822 -27.17185 34942 ft 477 kts 27°
2026-05-04 19:40 6.28701 -27.14082 34940 ft 477 kts 27°
2026-05-04 19:41 6.34573 -27.10979 34937 ft 477 kts 27°
2026-05-04 19:41 6.40451 -27.07865 34938 ft 477 kts 27°
2026-05-04 19:42 6.46321 -27.04753 34943 ft 477 kts 27°
2026-05-04 19:42 6.52196 -27.01646 34942 ft 477 kts 27°
2026-05-04 19:43 6.58074 -26.98535 34944 ft 477 kts 27°
2026-05-04 19:43 6.63953 -26.95423 34945 ft 477 kts 27°
2026-05-04 19:44 6.69824 -26.92316 34948 ft 477 kts 27°
2026-05-04 19:44 6.75656 -26.89225 34946 ft 477 kts 27°
2026-05-04 19:45 6.81529 -26.86111 34937 ft 477 kts 27°
2026-05-04 19:45 6.87395 -26.83006 34936 ft 476 kts 27°
2026-05-04 19:46 6.93260 -26.79898 34936 ft 476 kts 27°
2026-05-04 19:46 6.99131 -26.76789 34936 ft 477 kts 27°
2026-05-04 19:47 7.04997 -26.73678 34934 ft 477 kts 27°
2026-05-04 19:47 7.10865 -26.70559 34935 ft 477 kts 27°
2026-05-04 19:48 7.16737 -26.67441 34939 ft 477 kts 27°
2026-05-04 19:48 7.22617 -26.64321 34940 ft 478 kts 27°
2026-05-04 19:49 7.28496 -26.61197 34931 ft 478 kts 27°
2026-05-04 19:49 7.34372 -26.58068 34938 ft 478 kts 27°
2026-05-04 19:50 7.40220 -26.54955 34944 ft 478 kts 27°
2026-05-04 19:50 7.46107 -26.51825 34952 ft 478 kts 27°
2026-05-04 19:51 7.51990 -26.48695 34948 ft 478 kts 27°
2026-05-04 19:51 7.57881 -26.45568 34943 ft 478 kts 27°
2026-05-04 19:52 7.63769 -26.42438 34947 ft 479 kts 27°
2026-05-04 19:52 7.69660 -26.39311 34946 ft 479 kts 27°
2026-05-04 19:53 7.75551 -26.36174 34944 ft 479 kts 27°
2026-05-04 19:53 7.81444 -26.33030 34947 ft 479 kts 27°
2026-05-04 19:54 7.87297 -26.29909 34941 ft 479 kts 26°
2026-05-04 19:54 7.93200 -26.26768 34940 ft 480 kts 26°
2026-05-04 19:55 7.99114 -26.23619 34949 ft 480 kts 26°
2026-05-04 19:55 8.05013 -26.20470 34952 ft 480 kts 26°
2026-05-04 19:56 8.10918 -26.17314 34948 ft 480 kts 26°
2026-05-04 19:56 8.16821 -26.14176 34949 ft 480 kts 26°
2026-05-04 19:57 8.22724 -26.11026 34950 ft 480 kts 26°
2026-05-04 19:57 8.28629 -26.07856 34947 ft 480 kts 26°
2026-05-04 19:58 8.34535 -26.04699 34944 ft 481 kts 26°
2026-05-04 19:58 8.40412 -26.01562 34944 ft 481 kts 26°
2026-05-04 19:59 8.46327 -25.98405 34948 ft 481 kts 26°
2026-05-04 19:59 8.52236 -25.95244 34949 ft 481 kts 26°
2026-05-04 20:00 8.58157 -25.92084 34949 ft 481 kts 25°
2026-05-04 20:00 8.64069 -25.88925 34950 ft 481 kts 25°
2026-05-04 20:01 8.69987 -25.85763 34950 ft 481 kts 25°
2026-05-04 20:01 8.75899 -25.82597 34952 ft 481 kts 26°
2026-05-04 20:02 8.81813 -25.79430 34951 ft 481 kts 25°
2026-05-04 20:02 8.87724 -25.76264 34959 ft 481 kts 25°
2026-05-04 20:03 8.93597 -25.73113 34950 ft 481 kts 25°
2026-05-04 20:03 8.99517 -25.69936 34947 ft 482 kts 25°
2026-05-04 20:04 9.05435 -25.66758 34949 ft 482 kts 25°
2026-05-04 20:04 9.11363 -25.63582 34950 ft 482 kts 25°
2026-05-04 20:05 9.17283 -25.60404 34952 ft 482 kts 25°
2026-05-04 20:05 9.23211 -25.57220 34958 ft 482 kts 25°
2026-05-04 20:06 9.29137 -25.54044 34952 ft 482 kts 25°
2026-05-04 20:06 9.35065 -25.50866 34951 ft 482 kts 25°
2026-05-04 20:07 9.40955 -25.47699 34953 ft 482 kts 25°
2026-05-04 20:07 9.46885 -25.44509 34956 ft 483 kts 25°
2026-05-04 20:08 9.52812 -25.41318 34953 ft 483 kts 25°
2026-05-04 20:08 9.58740 -25.38130 34957 ft 483 kts 25°
2026-05-04 20:09 9.64674 -25.34939 34955 ft 483 kts 25°
2026-05-04 20:09 9.70605 -25.31745 34954 ft 483 kts 25°
2026-05-04 20:10 9.76503 -25.28564 34956 ft 483 kts 25°
2026-05-04 20:10 9.82431 -25.25362 34956 ft 483 kts 25°
2026-05-04 20:11 9.88374 -25.22160 34954 ft 483 kts 25°
2026-05-04 20:11 9.94302 -25.18961 34954 ft 483 kts 25°
2026-05-04 20:12 10.00240 -25.15751 34955 ft 483 kts 25°
2026-05-04 20:12 10.06171 -25.12547 34956 ft 483 kts 25°
2026-05-04 20:13 10.12108 -25.09340 34960 ft 483 kts 25°
2026-05-04 20:13 10.17999 -25.06155 34960 ft 483 kts 25°
2026-05-04 20:14 10.23931 -25.02940 34960 ft 483 kts 25°
2026-05-04 20:14 10.29865 -24.99727 34963 ft 483 kts 26°
2026-05-04 20:15 10.35791 -24.96514 34966 ft 483 kts 26°
2026-05-04 20:15 10.41729 -24.93307 34964 ft 483 kts 26°
2026-05-04 20:16 10.47666 -24.90094 34963 ft 483 kts 26°
2026-05-04 20:16 10.53593 -24.86875 34963 ft 483 kts 26°
2026-05-04 20:17 10.59528 -24.83652 34961 ft 483 kts 26°
2026-05-04 20:17 10.65462 -24.80430 34963 ft 484 kts 25°
2026-05-04 20:18 10.71406 -24.77214 34953 ft 484 kts 25°
2026-05-04 20:18 10.77312 -24.74004 34952 ft 485 kts 26°
2026-05-04 20:19 10.83271 -24.70765 34956 ft 485 kts 26°
2026-05-04 20:19 10.89225 -24.67533 34955 ft 485 kts 25°
2026-05-04 20:20 10.95186 -24.64292 34958 ft 486 kts 26°
2026-05-04 20:20 11.01140 -24.61042 34963 ft 486 kts 25°
2026-05-04 20:21 11.07111 -24.57798 34955 ft 487 kts 25°
2026-05-04 20:21 11.16072 -24.52915 34956 ft 487 kts 25°
2026-05-04 20:22 11.22011 -24.49673 34957 ft 488 kts 25°
2026-05-04 20:22 11.27992 -24.46407 34959 ft 488 kts 25°
2026-05-04 20:23 11.33974 -24.43142 34970 ft 488 kts 24°
2026-05-04 20:23 11.39959 -24.39881 34968 ft 488 kts 24°
2026-05-04 20:24 11.45952 -24.36612 34970 ft 488 kts 24°
2026-05-04 20:24 11.51934 -24.33342 34972 ft 488 kts 24°
2026-05-04 20:25 11.57912 -24.30072 34974 ft 487 kts 24°
2026-05-04 20:25 11.63880 -24.26809 34972 ft 487 kts 24°
2026-05-04 20:26 11.69810 -24.23561 34974 ft 486 kts 24°
2026-05-04 20:26 11.75770 -24.20297 34967 ft 486 kts 24°
2026-05-04 20:27 11.81725 -24.17044 34964 ft 486 kts 24°
2026-05-04 20:27 11.87681 -24.13783 34961 ft 486 kts 24°
2026-05-04 20:28 11.93633 -24.10514 34959 ft 486 kts 24°
2026-05-04 20:28 11.99590 -24.07246 34959 ft 486 kts 24°
2026-05-04 20:29 12.05546 -24.03981 34978 ft 486 kts 23°
2026-05-04 20:29 12.11498 -24.00715 34979 ft 485 kts 23°
2026-05-04 20:30 12.17405 -23.97473 34976 ft 485 kts 23°
2026-05-04 20:30 12.23341 -23.94203 34974 ft 484 kts 23°
2026-05-04 20:31 12.29273 -23.90939 34973 ft 484 kts 23°
2026-05-04 20:31 12.35214 -23.87671 34973 ft 485 kts 23°
2026-05-04 20:32 12.41148 -23.84401 34974 ft 484 kts 23°
2026-05-04 20:32 12.47083 -23.81132 34970 ft 485 kts 23°
2026-05-04 20:33 12.52978 -23.77883 34970 ft 485 kts 23°
2026-05-04 20:33 12.58921 -23.74605 34975 ft 485 kts 23°
2026-05-04 20:34 12.64846 -23.71329 34974 ft 484 kts 23°
2026-05-04 20:34 12.70773 -23.68066 34973 ft 483 kts 22°
2026-05-04 20:35 12.76685 -23.64810 34973 ft 483 kts 22°
2026-05-04 20:35 12.82598 -23.61539 34970 ft 483 kts 22°
2026-05-04 20:36 12.87514 -23.58819 34964 ft 483 kts 22°
2026-05-04 20:36 12.93430 -23.55549 34964 ft 483 kts 22°
2026-05-04 20:37 13.00313 -23.51739 34961 ft 484 kts 22°
2026-05-04 20:37 13.06232 -23.48453 34965 ft 484 kts 22°
2026-05-04 20:38 13.11197 -23.45707 34978 ft 484 kts 22°
2026-05-04 20:38 13.17093 -23.42444 34980 ft 485 kts 22°
2026-05-04 20:39 13.23027 -23.39154 34977 ft 485 kts 22°
2026-05-04 20:39 13.28960 -23.35867 34979 ft 485 kts 22°
2026-05-04 20:40 13.34776 -23.32633 34977 ft 482 kts 22°
2026-05-04 20:40 13.40686 -23.29351 34974 ft 483 kts 22°
2026-05-04 20:41 13.46661 -23.26265 34977 ft 475 kts 12°
2026-05-04 20:41 13.52974 -23.25004 34981 ft 454 kts 353°
2026-05-04 20:42 13.59097 -23.25678 34978 ft 443 kts 342°
2026-05-04 20:42 13.65180 -23.26702 34979 ft 443 kts 343°
2026-05-04 20:43 13.71267 -23.27709 34982 ft 443 kts 343°
2026-05-04 20:43 13.77356 -23.28715 34995 ft 443 kts 342°
2026-05-04 20:44 13.83434 -23.29721 34995 ft 442 kts 342°
2026-05-04 20:44 13.89508 -23.30727 34995 ft 442 kts 342°
2026-05-04 20:45 13.95576 -23.31737 34998 ft 442 kts 342°
2026-05-04 20:45 14.01640 -23.32752 34997 ft 442 kts 342°
2026-05-04 20:46 14.07707 -23.33769 34993 ft 442 kts 342°
2026-05-04 20:46 14.13727 -23.34775 35007 ft 441 kts 342°
2026-05-04 20:47 14.19789 -23.35782 35009 ft 441 kts 342°
2026-05-04 20:47 14.25839 -23.36797 35009 ft 440 kts 342°
2026-05-04 20:48 14.31885 -23.37816 35007 ft 441 kts 342°
2026-05-04 20:48 14.37938 -23.38828 35011 ft 441 kts 342°
2026-05-04 20:49 14.43987 -23.39836 35022 ft 440 kts 342°
2026-05-04 20:49 14.50037 -23.40840 35019 ft 440 kts 342°
2026-05-04 20:50 14.56075 -23.41851 35021 ft 440 kts 342°
2026-05-04 20:50 14.62076 -23.42860 35021 ft 440 kts 342°
2026-05-04 20:51 14.68118 -23.43879 35018 ft 440 kts 342°
2026-05-04 20:51 14.74158 -23.44896 35037 ft 440 kts 342°
2026-05-04 20:52 14.80189 -23.45902 35042 ft 439 kts 342°
2026-05-04 20:52 14.86225 -23.46909 34522 ft 441 kts 342°
2026-05-04 20:53 14.89254 -23.47421 33934 ft 441 kts 342°
2026-05-04 20:53 14.92300 -23.47816 33334 ft 445 kts 349°
2026-05-04 20:53 14.95414 -23.47723 32774 ft 452 kts 359°
2026-05-04 20:53 14.98532 -23.47111 32192 ft 457 kts
2026-05-04 20:54 15.01627 -23.46360 31611 ft 456 kts
2026-05-04 20:54 15.04713 -23.45612 31036 ft 456 kts
2026-05-04 20:54 15.07794 -23.44867 30473 ft 455 kts
2026-05-04 20:54 15.10876 -23.44127 29889 ft 454 kts
2026-05-04 20:55 15.13953 -23.43389 29294 ft 452 kts
2026-05-04 20:55 15.17004 -23.42656 28748 ft 449 kts 10°
2026-05-04 20:55 15.20036 -23.41924 28197 ft 446 kts 10°
2026-05-04 20:55 15.23049 -23.41196 27661 ft 443 kts 10°
2026-05-04 20:56 15.26040 -23.40472 27133 ft 440 kts 10°
2026-05-04 20:56 15.28971 -23.39763 26631 ft 437 kts 10°
2026-05-04 20:56 15.31919 -23.39051 26122 ft 433 kts 10°
2026-05-04 20:56 15.34839 -23.38349 25636 ft 429 kts 11°
2026-05-04 20:57 15.37736 -23.37649 25155 ft 425 kts 11°
2026-05-04 20:57 15.40601 -23.36956 24689 ft 421 kts 10°
2026-05-04 20:57 15.43445 -23.36269 24217 ft 417 kts 11°
2026-05-04 20:57 15.46257 -23.35591 23743 ft 414 kts 11°
2026-05-04 20:58 15.49050 -23.34918 23231 ft 410 kts 11°
2026-05-04 20:58 15.51815 -23.34251 22771 ft 405 kts 11°
2026-05-04 20:58 15.54537 -23.33593 22289 ft 400 kts 11°
2026-05-04 20:58 15.57231 -23.32940 21831 ft 395 kts 11°
2026-05-04 20:59 15.59855 -23.32170 21384 ft 391 kts 19°
2026-05-04 20:59 15.62359 -23.31079 20923 ft 388 kts 22°
2026-05-04 20:59 15.64832 -23.29988 20464 ft 385 kts 22°
2026-05-04 20:59 15.67285 -23.28908 20006 ft 382 kts 21°
2026-05-04 21:00 15.69719 -23.27836 19549 ft 379 kts 22°
2026-05-04 21:00 15.72143 -23.26768 19096 ft 377 kts 22°
2026-05-04 21:00 15.74553 -23.25707 18647 ft 375 kts 22°
2026-05-04 21:00 15.76957 -23.24650 18184 ft 374 kts 23°
2026-05-04 21:01 15.79312 -23.23615 17702 ft 372 kts 23°
2026-05-04 21:01 15.81683 -23.22570 17252 ft 368 kts 23°
2026-05-04 21:01 15.84027 -23.21533 16825 ft 365 kts 23°
2026-05-04 21:01 15.86353 -23.20508 16391 ft 361 kts 23°
2026-05-04 21:02 15.88657 -23.19492 15968 ft 358 kts 23°
2026-05-04 21:02 15.90943 -23.18484 15550 ft 356 kts 23°
2026-05-04 21:02 15.93213 -23.17482 15129 ft 354 kts 23°
2026-05-04 21:02 15.95467 -23.16485 14710 ft 352 kts 23°
2026-05-04 21:03 15.97712 -23.15492 14296 ft 350 kts 23°
2026-05-04 21:03 15.99948 -23.14503 13874 ft 348 kts 23°
2026-05-04 21:03 16.02171 -23.13519 13428 ft 346 kts 23°
2026-05-04 21:03 16.04381 -23.12543 13012 ft 344 kts 23°
2026-05-04 21:04 16.06572 -23.11575 12582 ft 341 kts 24°
2026-05-04 21:04 16.08746 -23.10613 12157 ft 338 kts 24°
2026-05-04 21:04 16.10877 -23.09672 11745 ft 336 kts 24°
2026-05-04 21:04 16.13026 -23.08720 11330 ft 334 kts 24°
2026-05-04 21:05 16.15157 -23.07776 10913 ft 333 kts 25°
2026-05-04 21:05 16.17283 -23.06835 10505 ft 331 kts 24°
2026-05-04 21:05 16.19393 -23.05902 10185 ft 326 kts 24°
2026-05-04 21:05 16.21443 -23.04997 10070 ft 314 kts 25°
2026-05-04 21:06 16.23427 -23.04121 9880 ft 306 kts 24°
2026-05-04 21:06 16.25379 -23.03256 9463 ft 305 kts 24°
2026-05-04 21:06 16.27321 -23.02396 9062 ft 304 kts 25°
2026-05-04 21:06 16.29249 -23.01541 8727 ft 299 kts 25°
2026-05-04 21:07 16.31161 -23.00692 8325 ft 299 kts 25°
2026-05-04 21:07 16.33069 -22.99844 7942 ft 297 kts 24°
2026-05-04 21:07 16.34958 -22.99005 7568 ft 295 kts 25°
2026-05-04 21:07 16.36815 -22.98180 7191 ft 292 kts 24°
2026-05-04 21:08 16.38686 -22.97349 6512 ft 287 kts 24°
2026-05-04 21:08 16.40513 -22.96538 5836 ft 281 kts 24°
2026-05-04 21:08 16.42221 -22.95783 5517 ft 264 kts 23°
2026-05-04 21:08 16.43904 -22.95056 5305 ft 258 kts 18°
2026-05-04 21:09 16.45697 -22.94687 5117 ft 272 kts
2026-05-04 21:09 16.47601 -22.94674 4799 ft 273 kts 359°
2026-05-04 21:09 16.49491 -22.94723 4454 ft 271 kts 359°
2026-05-04 21:09 16.51364 -22.94744 4109 ft 268 kts
2026-05-04 21:10 16.53221 -22.94755 3769 ft 265 kts
2026-05-04 21:10 16.55056 -22.94766 3447 ft 263 kts
2026-05-04 21:10 16.56879 -22.94779 3116 ft 260 kts
2026-05-04 21:10 16.58644 -22.94792 2789 ft 246 kts
2026-05-04 21:11 16.60311 -22.94804 2474 ft 233 kts
2026-05-04 21:11 16.61916 -22.94814 2192 ft 229 kts
2026-05-04 21:11 16.63497 -22.94825 1899 ft 226 kts
2026-05-04 21:11 16.65059 -22.94836 1606 ft 224 kts
2026-05-04 21:12 16.66589 -22.94847 1331 ft 214 kts
2026-05-04 21:12 16.68026 -22.94857 1057 ft 199 kts
2026-05-04 21:12 16.69316 -22.94867 876 ft 168 kts
2026-05-04 21:12 16.70410 -22.94874 626 ft 149 kts
2026-05-04 21:13 16.71402 -22.94880 392 ft 140 kts 359°
2026-05-04 21:13 16.72363 -22.94885 234 ft 139 kts
2026-05-04 21:13 16.73258 -22.94891 182 ft 104 kts
2026-05-04 21:13 16.73791 -22.94892 179 ft 54 kts 360°
2026-05-04 21:14 16.74074 -22.94895 177 ft 38 kts 359°
2026-05-04 21:14 16.74225 -22.94858 177 ft 21 kts 39°
2026-05-04 21:14 16.74278 -22.94714 179 ft 17 kts 125°
2026-05-04 21:14 16.74211 -22.94701 180 ft 11 kts 178°
2026-05-04 21:15 16.74082 -22.94699 179 ft 25 kts 179°
2026-05-04 21:15 16.73862 -22.94699 179 ft 36 kts 180°
2026-05-04 21:15 16.73639 -22.94633 180 ft 34 kts 130°
2026-05-04 21:15 16.73539 -22.94506 180 ft 0 kts 129°